* Astronomy

Members Login
Username 
 
Password 
    Remember Me  
Post Info TOPIC: Asteroid 2004 PS42


L

Posts: 131433
Date:
Asteroid 2004 PS42
Permalink  
 


Orbital elements:
2004 PS42                                           PHA, Earth MOID = 0.0488 AU
Epoch 2014 Dec. 9.0 TT = JDT 2457000.5                  MPC
M 198.80849              (2000.0)            P               Q
n   0.71219546     Peri.  323.39616     +0.00027601     +0.94563862
a   1.2418522      Node   304.33883     -0.79840221     -0.19561404
e   0.1672929      Incl.   23.19509     -0.60212444     +0.25981289
P   1.38           H   21.3           G   0.15           U   3

MPEC 2015 - B110



__________________
Page 1 of 1  sorted by
 
Quick Reply

Please log in to post quick replies.



Create your own FREE Forum
Report Abuse
Powered by ActiveBoard